Location: Unspecified
(0.0000°N, 0.0000°E)
Time: 05:18:20
(UTC+00:00)

Envisat - Visible Passes

Search period start: 22 August 2018 00:00
Search period end: 01 September 2018 00:00
Orbit: 764 x 766 km, 98.2° (Epoch: 21 August)

Date Brightness Start Highest point End Pass type
(mag) Time Alt. Az. Time Alt. Az. Time Alt. Az.
22 Aug 2.9 19:34:15 25° SSE 19:37:15 87° ENE 19:42:19 10° N visible
23 Aug 3.8 18:57:05 14° SE 19:00:37 30° ENE 19:05:00 10° NNE visible
23 Aug 5.6 20:37:17 13° SW 20:39:21 16° WSW 20:42:19 10° WNW visible
24 Aug 4.0 20:00:07 24° SSW 20:02:45 44° WSW 20:07:33 10° NNW visible
25 Aug 2.9 19:22:56 23° SSE 19:26:07 64° ENE 19:31:07 10° N visible
26 Aug 4.1 18:45:46 11° SE 18:49:29 22° ENE 18:53:21 10° NNE visible
26 Aug 5.2 20:25:58 16° SW 20:28:13 21° WSW 20:32:00 10° NW visible
27 Aug 3.4 19:48:48 26° S 19:51:36 61° WSW 19:56:35 10° NNW visible
28 Aug 3.2 19:11:37 19° SE 19:14:58 46° ENE 19:19:48 10° N visible
29 Aug 4.5 18:35:14 10° ESE 18:38:21 16° ENE 18:41:26 10° NE visible
29 Aug 4.7 20:14:39 20° SW 20:17:05 29° WSW 20:21:25 10° NW visible
30 Aug 2.9 19:37:29 25° S 19:40:28 83° WSW 19:45:32 10° NNW visible
31 Aug 3.6 19:00:19 15° SE 19:03:50 34° ENE 19:08:22 10° NNE visible
31 Aug 5.7 20:40:31 11° SW 20:42:33 14° WSW 20:45:03 10° WNW visible
